Regional Weather Roundup
Issued by NWS

Home | Current Version | Previous Version | Text Only | Print | Product List | Glossary Off
Versions: 1 2 3 4 5 6 7 8 9 10 11 12 13 14 15 16 17 18 19 20 21 22 23 24 25 26 27 28 29 30 31 32 33 34 35 36 37 38 39 40 41 42 43 44 45 46 47 48 49 50

000
ASUS44 KMEG 032210
RWRTN
TENNESSEE HOURLY STATE WEATHER ROUNDUP
NATIONAL WEATHER SERVICE MEMPHIS TN
500 PM CDT TUE MAY 03 2016

TNZ002-004-019-021-049-052-054-088>092-032300-
WEST TENNESSEE

CITY           SKY/WX    TMP DP  RH WIND       PRES   REMARKS
MEMPHIS INTL   PTSUNNY   66  49  54 NW10      29.98F
NWS MEMPHIS      N/A     64 N/A N/A MISG        N/A
JACKSON        CLOUDY    64  50  60 NW10      29.95F
DYERSBURG      CLOUDY    64  45  48 W7        29.96S
UNION CITY     PTSUNNY   63  48  59 N8        29.95S
LEXINGTON      CLOUDY    63  50  63 NW7       29.94S
$$

TNZ008-025-027-028-033-062-065-066-032300-
NORTH MIDDLE TENNESSEE

CITY           SKY/WX    TMP DP  RH WIND       PRES   REMARKS
NASHVILLE      PTSUNNY   64  46  52 NW8       29.93S
CLARKSVILLE    CLOUDY    62  45  53 NW13      29.94S
SMYRNA         PTSUNNY   65  49  56 N14       29.93S
COOKEVILLE     PTSUNNY   66  50  55 VRB7      29.90S
CROSSVILLE     CLOUDY    64  46  52 NW8       29.91S
$$

TNZ061-075-076-078-094-096-097-032300-
SOUTH MIDDLE TENNESSEE

CITY           SKY/WX    TMP DP  RH WIND       PRES   REMARKS
FAYETTEVILLE   MOSUNNY   68  50  52 NW7       29.90S
TULLAHOMA      PTSUNNY   64  46  52 NW10      29.91F
WINCHESTER     PTSUNNY   66  48  52 NW9       29.90S
MCMINNVILLE    CLOUDY    64  48  55 NW10      29.91S
COLUMBIA       CLOUDY    64  52  63 VRB6      29.92R
SHELBYVILLE    CLOUDY    66  52  59 NW10      29.92S
$$

TNZ017-018-042-046-047-032300-
NORTHEAST TENNESSEE

CITY           SKY/WX    TMP DP  RH WIND       PRES   REMARKS
TRI CITIES     PTSUNNY   67  49  52 NW10      29.83S
$$

TNZ012-013-036-069-073-074-032300-
CENTRAL EAST TENNESSEE

CITY           SKY/WX    TMP DP  RH WIND       PRES   REMARKS
KNOXVILLE      MOSUNNY   70  51  51 W13       29.85R
OAK RIDGE      MOSUNNY   71  45  39 VRB6      29.87S
GATLINBURG     PTCLDY    66  52  59 NW10      29.84R
MORRISTOWN     MOCLDY    66  50  55 NW10G17   29.84S
$$

TNZ083-085-099-032300-
SOUTHEAST TENNESSEE

CITY           SKY/WX    TMP DP  RH WIND       PRES   REMARKS
CHATTANOOGA    PTSUNNY   73  47  39 NW7       29.86S
$$

SKY/WX REPORTED AS FAIR MEANS FEW OR NO CLOUDS BELOW
12 THOUSAND FEET.





USA.gov is the U.S. government's official web portal to all federal, state and local government web resources and services.